Big Rapids, MI

9:00 PM EDT on October 16, 2019 (GMT -0400)
Roben-Hood

Weather History for KRQB - August, 2019

Change the Weather History Date:

Wednesday, August 28, 2019

  Actual Average Record
Temperature  
Mean Temperature 60 °F -  
Max Temperature 68 °F 78 °F 94 °F (1973)
Min Temperature 52 °F 55 °F 38 °F (1982)
Degree Days  
Heating Degree Days 5    
Growing Degree Days 10 (Base 50)    
Moisture  
Dew Point 53 °F    
Average Humidity 78    
Maximum Humidity 95    
Minimum Humidity 53    
Precipitation  
Precipitation 0.00 in - - ()
Sea Level Pressure  
Sea Level Pressure 29.84 in    
Wind  
Wind Speed 6 mph (WSW)    
Max Wind Speed 20 mph    
Max Gust Speed 29 mph    
Visibility 10 miles    
Events      
Averages and records for this station are not official NWS values.
T = Trace of Precipitation, MM = Missing Value Source: NWS Daily Summary

Daily Weather History Graph

Daily Weather History Graph

Search for Another Location

Airport or City:

Astronomy

Aug. 28, 2019 Rise Set
Actual Time 7:00 AM EDT 8:24 PM EDT
Civil Twilight 6:30 AM EDT 8:54 PM EDT
Nautical Twilight 5:54 AM EDT 9:30 PM EDT
Astronomical Twilight 5:16 AM EDT 10:08 PM EDT
Moon 4:26 AM EDT (8/28) 7:41 PM EDT (8/28)
Length of Visible Light 14h 23m
Length of Day
13h 24m
Waning Crescent, 5% of the Moon is Illuminated
Aug 28
Waning Crescent
Aug 30
New
Sep 5
First Quarter
Sep 14
Full
Sep 21
Last Quarter

Hourly Weather History & Observations

Time (EDT) Temp. Dew Point Humidity Pressure Visibility Wind Dir Wind Speed Gust Speed Precip Events Conditions
12:15 AM 63.5 °F 59.2 °F 86% 29.82 in 10.0 mi WSW 4.6 mph - N/A   Clear
12:16 AM 63.5 °F 59.2 °F 86% 29.82 in 10.0 mi WSW 4.6 mph - N/A   Clear
12:35 AM 63.0 °F 58.8 °F 86% 29.82 in 10.0 mi West 6.9 mph - N/A   Clear
12:36 AM 63.1 °F 58.6 °F 85% 29.82 in 10.0 mi West 6.9 mph - N/A   Clear
12:58 AM 64.0 °F 55.9 °F 75% 29.82 in 10.0 mi WNW 6.9 mph - N/A   Clear
1:16 AM 62.6 °F 55.9 °F 79% 29.82 in 10.0 mi WNW 3.5 mph - N/A   Clear
1:35 AM 61.5 °F 55.8 °F 81% 29.82 in 10.0 mi Calm Calm - N/A   Clear
1:36 AM 61.3 °F 55.8 °F 82% 29.82 in 10.0 mi Calm Calm - N/A   Clear
2:17 AM 57.4 °F 55.6 °F 94% 29.82 in 10.0 mi Calm Calm - N/A   Clear
2:35 AM 57.2 °F 54.9 °F 92% 29.81 in 10.0 mi Calm Calm - N/A   Clear
2:55 AM 56.8 °F 54.9 °F 93% 29.80 in 10.0 mi Calm Calm - N/A   Clear
2:59 AM 56.8 °F 54.7 °F 92% 29.80 in 10.0 mi Calm Calm - N/A   Clear
3:17 AM 55.9 °F 53.8 °F 92% 29.80 in 10.0 mi Calm Calm - N/A   Clear
3:35 AM 55.4 °F 53.2 °F 92% 29.80 in 10.0 mi Calm Calm - N/A   Clear
3:36 AM 55.4 °F 53.1 °F 92% 29.80 in 10.0 mi Calm Calm - N/A   Clear
3:55 AM 53.6 °F 52.0 °F 94% 29.80 in 10.0 mi Calm Calm - N/A   Clear
3:56 AM 53.6 °F 52.2 °F 95% 29.80 in 10.0 mi Calm Calm - N/A   Clear
4:15 AM 53.2 °F 52.0 °F 95% 29.80 in 10.0 mi Calm Calm - N/A   Clear
4:37 AM 53.4 °F 52.2 °F 95% 29.79 in 10.0 mi Calm Calm - N/A   Clear
4:55 AM 53.6 °F 52.2 °F 95% 29.79 in 10.0 mi Calm Calm - N/A   Clear
5:15 AM 53.1 °F 51.3 °F 94% 29.79 in 10.0 mi Calm Calm - N/A   Clear
5:20 AM 52.7 °F 50.9 °F 94% 29.79 in 10.0 mi Calm Calm - N/A   Clear
5:37 AM 52.2 °F 50.5 °F 94% 29.79 in 10.0 mi South 3.5 mph - N/A   Clear
5:55 AM 52.7 °F 51.1 °F 94% 29.79 in 10.0 mi South 3.5 mph - N/A   Clear
5:56 AM 52.7 °F 51.1 °F 94% 29.79 in 10.0 mi South 3.5 mph - N/A   Clear
6:15 AM 52.7 °F 51.1 °F 94% 29.79 in 10.0 mi SSW 6.9 mph - N/A   Clear
6:16 AM 52.7 °F 51.1 °F 94% 29.79 in 10.0 mi SSW 6.9 mph - N/A   Clear
6:38 AM 52.7 °F 51.3 °F 95% 29.79 in 10.0 mi SSW 6.9 mph - N/A   Clear
6:56 AM 57.0 °F 53.8 °F 89% 29.80 in 10.0 mi WSW 4.6 mph - N/A   Clear
7:15 AM 57.2 °F 53.4 °F 87% 29.80 in 10.0 mi WSW 4.6 mph - N/A   Clear
7:16 AM 57.2 °F 53.4 °F 87% 29.80 in 10.0 mi WSW 5.8 mph - N/A   Clear
7:35 AM 57.6 °F 53.6 °F 87% 29.80 in 10.0 mi WSW 4.6 mph - N/A   Clear
7:40 AM 57.6 °F 53.6 °F 87% 29.80 in 10.0 mi WSW 4.6 mph - N/A   Clear
7:57 AM 58.8 °F 54.3 °F 85% 29.80 in 10.0 mi WSW 6.9 mph - N/A   Clear
8:15 AM 59.9 °F 54.7 °F 83% 29.80 in 10.0 mi WSW 8.1 mph - N/A   Clear
8:16 AM 59.9 °F 54.7 °F 83% 29.80 in 10.0 mi WSW 8.1 mph - N/A   Clear
8:35 AM 61.2 °F 54.7 °F 79% 29.80 in 10.0 mi West 9.2 mph - N/A   Clear
8:36 AM 61.2 °F 54.7 °F 79% 29.80 in 10.0 mi WSW 11.5 mph 17.3 mph N/A   Clear
8:58 AM 62.6 °F 54.9 °F 76% 29.80 in 10.0 mi WSW 10.4 mph 19.6 mph N/A   Clear
9:17 AM 63.3 °F 55.4 °F 75% 29.80 in 10.0 mi WSW 9.2 mph 18.4 mph N/A   Clear
9:35 AM 63.9 °F 55.6 °F 74% 29.80 in 10.0 mi West 13.8 mph 20.7 mph N/A   Scattered Clouds
9:55 AM 64.8 °F 55.9 °F 73% 29.81 in 10.0 mi WSW 16.1 mph 25.3 mph N/A   Mostly Cloudy
10:00 AM 65.5 °F 55.8 °F 71% 29.81 in 10.0 mi WSW 12.7 mph 25.3 mph N/A   Mostly Cloudy
10:17 AM 65.3 °F 54.7 °F 68% 29.81 in 10.0 mi West 11.5 mph 24.2 mph N/A   Mostly Cloudy
10:35 AM 65.7 °F 53.1 °F 64% 29.81 in 10.0 mi West 17.3 mph 24.2 mph N/A   Scattered Clouds
10:36 AM 65.8 °F 52.9 °F 63% 29.81 in 10.0 mi West 18.4 mph 24.2 mph N/A   Scattered Clouds
10:55 AM 67.3 °F 53.2 °F 61% 29.81 in 10.0 mi West 12.7 mph 23.0 mph N/A   Scattered Clouds
11:17 AM 66.2 °F 51.3 °F 59% 29.82 in 10.0 mi West 16.1 mph 26.5 mph N/A   Mostly Cloudy
11:35 AM 67.1 °F 50.4 °F 55% 29.82 in 10.0 mi West 13.8 mph 24.2 mph N/A   Scattered Clouds
11:36 AM 67.1 °F 50.5 °F 55% 29.82 in 10.0 mi West 15.0 mph 24.2 mph N/A   Mostly Cloudy
11:55 AM 66.4 °F 50.5 °F 57% 29.82 in 10.0 mi West 13.8 mph 24.2 mph N/A   Overcast
12:19 PM 65.8 °F 50.7 °F 58% 29.82 in 10.0 mi West 16.1 mph 21.9 mph N/A   Mostly Cloudy
12:35 PM 68.0 °F 51.1 °F 55% 29.82 in 10.0 mi West 13.8 mph 23.0 mph N/A   Mostly Cloudy
12:55 PM 66.6 °F 50.5 °F 56% 29.82 in 10.0 mi West 13.8 mph 23.0 mph N/A   Mostly Cloudy
1:19 PM 66.6 °F 51.1 °F 57% 29.82 in 10.0 mi West 12.7 mph 19.6 mph N/A   Overcast
1:35 PM 66.4 °F 50.4 °F 56% 29.82 in 10.0 mi West 18.4 mph 27.6 mph N/A   Mostly Cloudy
1:55 PM 66.6 °F 50.5 °F 56% 29.82 in 10.0 mi West 18.4 mph 26.5 mph N/A   Mostly Cloudy
1:56 PM 66.6 °F 50.0 °F 55% 29.83 in 10.0 mi West 19.6 mph 26.5 mph N/A   Mostly Cloudy
2:15 PM 68.2 °F 50.4 °F 53% 29.83 in 10.0 mi West 13.8 mph 21.9 mph N/A   Scattered Clouds
2:20 PM 68.0 °F 50.7 °F 54% 29.82 in 10.0 mi West 16.1 mph 21.9 mph N/A   Scattered Clouds
2:37 PM 63.1 °F 52.2 °F 67% 29.84 in 10.0 mi WNW 15.0 mph 25.3 mph N/A   Mostly Cloudy
2:55 PM 61.2 °F 53.1 °F 75% 29.85 in 10.0 mi WNW 9.2 mph 18.4 mph N/A   Overcast
2:56 PM 61.3 °F 52.9 °F 74% 29.85 in 10.0 mi WNW 9.2 mph 18.4 mph N/A   Overcast
3:15 PM 64.4 °F 53.2 °F 67% 29.85 in 10.0 mi West 13.8 mph 19.6 mph N/A   Overcast
3:20 PM 63.7 °F 52.9 °F 68% 29.86 in 10.0 mi West 19.6 mph 28.8 mph N/A   Overcast
3:37 PM 60.4 °F 54.9 °F 82% 29.86 in 10.0 mi West 12.7 mph 17.3 mph N/A   Overcast
3:55 PM 63.5 °F 55.8 °F 76% 29.86 in 10.0 mi West 12.7 mph 18.4 mph N/A   Mostly Cloudy
3:56 PM 63.9 °F 55.9 °F 75% 29.86 in 10.0 mi West 13.8 mph 18.4 mph N/A   Mostly Cloudy
4:15 PM 63.5 °F 52.7 °F 68% 29.86 in 10.0 mi West 11.5 mph 19.6 mph N/A   Mostly Cloudy
4:16 PM 63.5 °F 52.7 °F 68% 29.86 in 10.0 mi West 10.4 mph 19.6 mph N/A   Mostly Cloudy
4:38 PM 63.9 °F 52.3 °F 66% 29.87 in 10.0 mi West 12.7 mph 17.3 mph N/A   Overcast
4:55 PM 64.4 °F 50.7 °F 61% 29.87 in 10.0 mi West 9.2 mph 20.7 mph N/A   Overcast
5:15 PM 63.5 °F 51.6 °F 65% 29.87 in 10.0 mi West 12.7 mph 18.4 mph N/A   Overcast
5:38 PM 64.2 °F 52.0 °F 64% 29.88 in 10.0 mi West 10.4 mph - N/A   Overcast
5:56 PM 63.3 °F 50.9 °F 64% 29.88 in 10.0 mi West 6.9 mph - N/A   Overcast
6:15 PM 63.5 °F 51.6 °F 65% 29.88 in 10.0 mi West 9.2 mph - N/A   Overcast
6:16 PM 63.5 °F 51.6 °F 65% 29.88 in 10.0 mi West 8.1 mph - N/A   Overcast
6:35 PM 63.9 °F 51.8 °F 65% 29.88 in 10.0 mi West 8.1 mph - N/A   Overcast
6:40 PM 64.0 °F 51.8 °F 64% 29.89 in 10.0 mi West 9.2 mph 16.1 mph N/A   Overcast
6:57 PM 63.7 °F 51.1 °F 64% 29.89 in 10.0 mi West 8.1 mph 17.3 mph N/A   Mostly Cloudy
7:15 PM 63.3 °F 51.6 °F 66% 29.89 in 10.0 mi WSW 5.8 mph - N/A   Mostly Cloudy
7:16 PM 63.1 °F 51.8 °F 66% 29.89 in 10.0 mi WSW 5.8 mph - N/A   Mostly Cloudy
7:35 PM 62.6 °F 51.8 °F 68% 29.89 in 10.0 mi WSW 4.6 mph - N/A   Overcast
7:36 PM 62.6 °F 52.0 °F 68% 29.89 in 10.0 mi WSW 3.5 mph - N/A   Overcast
7:58 PM 61.2 °F 52.7 °F 74% 29.89 in 10.0 mi Calm Calm - N/A   Mostly Cloudy
8:15 PM 59.9 °F 52.7 °F 77% 29.89 in 10.0 mi Calm Calm - N/A   Scattered Clouds
8:35 PM 57.7 °F 53.2 °F 85% 29.89 in 10.0 mi Calm Calm - N/A   Clear
8:59 PM 57.4 °F 53.1 °F 85% 29.90 in 10.0 mi Calm Calm - N/A   Scattered Clouds
9:16 PM 56.7 °F 52.7 °F 87% 29.91 in 10.0 mi Calm Calm - N/A   Clear
9:35 PM 55.4 °F 52.3 °F 89% 29.92 in 10.0 mi Calm Calm - N/A   Clear
9:36 PM 55.2 °F 52.5 °F 91% 29.92 in 10.0 mi Calm Calm - N/A   Clear
9:55 PM 55.2 °F 53.1 °F 92% 29.92 in 10.0 mi Calm Calm - N/A   Scattered Clouds
10:00 PM 55.2 °F 53.1 °F 92% 29.92 in 10.0 mi Calm Calm - N/A   Scattered Clouds
10:18 PM 54.5 °F 52.3 °F 92% 29.92 in 10.0 mi Calm Calm - N/A   Overcast
10:35 PM 55.4 °F 53.6 °F 94% 29.92 in 10.0 mi Calm Calm - N/A   Overcast
10:55 PM 55.8 °F 54.3 °F 95% 29.93 in 10.0 mi Calm Calm - N/A   Overcast
11:18 PM 56.5 °F 55.0 °F 95% 29.93 in 10.0 mi Calm Calm - N/A   Overcast
11:35 PM 56.7 °F 55.2 °F 95% 29.93 in 10.0 mi Calm Calm - N/A   Overcast
11:55 PM 56.8 °F 55.4 °F 95% 29.93 in 10.0 mi Calm Calm - N/A   Overcast